Estación de Hornitos

Ultimos registro cada 15 minutos 29
Estación Fecha / Hora Temperatura Humedad Lluvia Velocidad Dirección Radiación Presion
29 Hornitos 04-05-2026 07:00 4,8 76 0 0,4 169 0 1013,1
28 Hornitos 04-05-2026 06:45 4,5 75 0 0 179 0 1013,2
27 Hornitos 04-05-2026 06:30 4,6 75 0 0 179 0 1013,2
26 Hornitos 04-05-2026 06:15 4,8 75 0 0 179 0 1012,9
25 Hornitos 04-05-2026 06:00 5 75 0 0 179 0 1012,8
24 Hornitos 04-05-2026 05:45 5,2 75 0 0 179 0 1012,5
23 Hornitos 04-05-2026 05:30 5,4 75 0 0 179 0 1012,4
22 Hornitos 04-05-2026 05:15 5,7 76 0 0 179 0 1012,3
21 Hornitos 04-05-2026 05:00 5,7 75 0 0 174 0 1012,2
20 Hornitos 04-05-2026 04:45 6,1 75 0 0,4 174 0 1012,1
19 Hornitos 04-05-2026 04:30 6,4 76 0 0 133 0 1012,2
18 Hornitos 04-05-2026 04:15 6,1 74 0 0 216 0 1012,2
17 Hornitos 04-05-2026 04:00 6,1 74 0 0 216 0 1012,3
16 Hornitos 04-05-2026 03:45 6,1 74 0 0 216 0 1012,5
15 Hornitos 04-05-2026 03:30 6,1 74 0 0 216 0 1012,5
14 Hornitos 04-05-2026 03:15 6 73 0 0 216 0 1012,5
13 Hornitos 04-05-2026 03:00 6,2 73 0 0 216 0 1012,6
12 Hornitos 04-05-2026 02:45 6,1 72 0 0 216 0 1012,7
11 Hornitos 04-05-2026 02:30 6,2 72 0 0 216 0 1012,8
10 Hornitos 04-05-2026 02:15 6,6 72 0 0 216 0 1012,8
9 Hornitos 04-05-2026 02:00 6,8 72 0 0 216 0 1013
8 Hornitos 04-05-2026 01:45 6,8 72 0 0 216 0 1013,1
7 Hornitos 04-05-2026 01:30 6,9 71 0 0 216 0 1013
6 Hornitos 04-05-2026 01:15 7 71 0 0 216 0 1012,7
5 Hornitos 04-05-2026 01:00 7,2 70 0 0 216 0 1012,7
4 Hornitos 04-05-2026 00:45 7,2 70 0 0 216 0 1012,6
3 Hornitos 04-05-2026 00:30 7,4 69 0 0 216 0 1012,7
2 Hornitos 04-05-2026 00:15 7,6 70 0 0 216 0 1012,8
1 Hornitos 04-05-2026 00:00 7,6 68 0 0 216 0 1012,7